Torna al catalogo

STARLINK-33965

AttivoComunicazioniVLEO
NORAD 64755·PAYLOAD·🇺🇸 United States

Lanciato Jul 8, 2025 da Cape Canaveral Space Force Station

Loading…

Prossimi Passaggi (prossime 24 ore)

TLE

AggiornatoSource: CelesTrak SupGP

Epoca: Sep 15, 2026, 02:57 UTC

1 64755C 25147A   26258.12340278 -.00023989  00000+0 -70880-3 0  2582
2 64755  53.1576  78.6665 0001122  84.9633 287.0286 15.34400979    19

Traccia STARLINK-33965 in tempo reale con AllMySat

Download on the App Store